Worcester, MA

8:18 PM EST on February 20, 2017 (GMT -0500)
Worcester Regional

Weather History for KORH - August, 2014

Change the Weather History Date:

Saturday, August 16, 2014

  Actual Average Record
Temperature  
Mean Temperature 63 °F 69 °F  
Max Temperature 72 °F 78 °F 96 °F (1944)
Min Temperature 54 °F 61 °F 46 °F (1934)
Degree Days  
Heating Degree Days 2 1  
Month to date heating degree days 10 7  
Since 1 June heating degree days 55 104  
Since 1 July heating degree days 10 21  
Cooling Degree Days 0 5  
Month to date cooling degree days 55 86  
Year to date cooling degree days 321 367  
Since 1 June cooling degree days 313 345  
Growing Degree Days 12 (Base 50)    
Moisture  
Dew Point 51 °F    
Average Humidity 67    
Maximum Humidity 89    
Minimum Humidity 44    
Precipitation  
Precipitation 0.00 in 0.12 in 1.86 in (1952)
Month to date precipitation 2.17 2.06  
Year to date precipitation 31.20 29.71  
Sea Level Pressure  
Sea Level Pressure 29.97 in    
Wind  
Wind Speed 10 mph (WSW)    
Max Wind Speed 18 mph    
Max Gust Speed 24 mph    
Visibility 10 miles    
Events      
T = Trace of Precipitation, MM = Missing Value Source: NWS Daily Summary

Daily Weather History Graph

Daily Weather History Graph

Search for Another Location

Airport or City:

Trip Planner

Search our weather history database for the weather conditions in past years. The results will help you decide how hot, cold, wet, or windy it might be!

Date:

Astronomy

Aug. 16, 2014 Rise Set
Actual Time 5:55 AM EDT 7:46 PM EDT
Civil Twilight 5:25 AM EDT 8:16 PM EDT
Nautical Twilight 4:48 AM EDT 8:53 PM EDT
Astronomical Twilight 4:09 AM EDT 9:33 PM EDT
Moon 11:19 PM EDT (8/16) 12:47 PM EDT (8/16)
Length of Visible Light 14h 51m
Length of Day
13h 51m
Waning Gibbous, 59% of the Moon is Illuminated
Aug 16
Waning Gibbous
Aug 17
Last Quarter
Aug 25
New
Sep 2
First Quarter
Sep 8
Full

Hourly Weather History & Observations

Time (EDT) Temp. Dew Point Humidity Pressure Visibility Wind Dir Wind Speed Gust Speed Precip Events Conditions
1:54 AM 55.0 °F 51.1 °F 86% 29.95 in 10.0 mi WSW 6.9 mph - N/A   Overcast
2:54 AM 55.0 °F 51.1 °F 86% 29.95 in 10.0 mi SW 4.6 mph - N/A   Overcast
3:54 AM 55.0 °F 51.1 °F 86% 29.96 in 10.0 mi WSW 8.1 mph - N/A   Overcast
4:54 AM 54.0 °F 50.0 °F 86% 29.96 in 10.0 mi WSW 10.4 mph - N/A   Mostly Cloudy
5:54 AM 54.0 °F 50.0 °F 86% 29.96 in 10.0 mi West 9.2 mph - N/A   Clear
6:54 AM 55.0 °F 51.1 °F 86% 29.98 in 10.0 mi WSW 9.2 mph - N/A   Clear
7:54 AM 57.9 °F 51.1 °F 78% 29.99 in 10.0 mi West 10.4 mph - N/A   Clear
8:54 AM 62.1 °F 51.1 °F 67% 30.00 in 10.0 mi West 10.4 mph 17.3 mph N/A   Clear
9:54 AM 63.0 °F 52.0 °F 67% 30.00 in 10.0 mi WSW 12.7 mph - N/A   Clear
10:54 AM 66.0 °F 51.1 °F 59% 30.01 in 10.0 mi WSW 10.4 mph - N/A   Clear
11:54 AM 68.0 °F 48.9 °F 50% 29.99 in 10.0 mi West 12.7 mph - N/A   Clear
12:54 PM 69.1 °F 48.0 °F 47% 29.99 in 10.0 mi West 12.7 mph 18.4 mph N/A   Scattered Clouds
1:54 PM 71.1 °F 48.9 °F 45% 29.97 in 10.0 mi WSW 15.0 mph 24.2 mph N/A   Mostly Cloudy
2:54 PM 71.1 °F 50.0 °F 47% 29.96 in 10.0 mi SW 12.7 mph - N/A   Partly Cloudy
3:54 PM 71.1 °F 50.0 °F 47% 29.96 in 10.0 mi SW 13.8 mph - N/A   Clear
4:54 PM 70.0 °F 50.0 °F 49% 29.96 in 10.0 mi WSW 15.0 mph - N/A   Clear
5:54 PM 68.0 °F 51.1 °F 55% 29.96 in 10.0 mi WSW 9.2 mph - N/A   Clear
6:54 PM 66.0 °F 52.0 °F 60% 29.95 in 10.0 mi WSW 6.9 mph - N/A   Clear
7:54 PM 64.0 °F 53.1 °F 67% 29.95 in 10.0 mi SSW 3.5 mph - N/A   Clear
8:54 PM 63.0 °F 53.1 °F 70% 29.96 in 10.0 mi SW 4.6 mph - N/A   Clear
9:54 PM 62.1 °F 52.0 °F 70% 29.95 in 10.0 mi SW 6.9 mph - N/A   Clear
10:54 PM 62.1 °F 52.0 °F 70% 29.94 in 10.0 mi SSW 6.9 mph - N/A   Clear
11:54 PM 63.0 °F 55.0 °F 75% 29.93 in 10.0 mi SW 9.2 mph - N/A   Clear